Flag for Colombia Weather past 2 weeks in Buenaventura, Colombia

Now
68 °F

Passing clouds.


Feels Like: 68 °F
Forecast: 75 / 87 °F
Wind: 2 mph from North

Location: Cali / Alfonso Bonillaaragon

Current Time: Aug 28, 2014 at 2:38:34 AM

Latest Report: Aug 28, 2014 at 2:00 AM


Visibility: N/A

Pressure: 30.00 "Hg

Humidity: 83%

Dew point: 63 °F

Location of BuenaventuraLocation

Historic Weather in Buenaventura — Graph

°F

Buenaventura temperature yesterday

Maximum temperature yesterday: 84 °F (at 4:00 PM)
Minimum temperature yesterday: 68 °F (at 1:00 AM)
Average temperature yesterday: 74 °F

Past Weeks' High & Low Weather Summary

 TemperatureHumidityPressure
High93 °F (Aug 15, 3:00 PM)94% (Aug 13, 2:00 AM)30.09 "Hg (Aug 13, 2:00 AM)
Low64 °F (Aug 15, 5:00 AM)28% (Aug 19, 2:00 PM)29.80 "Hg (Aug 24, 4:00 PM)
Average76 °F69%29.95 "Hg
* Reported Aug 13 1:00 AM — Aug 28 1:00 AM, Buenaventura, Weather by CustomWeather, © 2014

Note: Actual official high and low records may vary slightly from our data, if they occured in-between our weather recording intervals... More about our weather records

Advertising

Buenaventura weather history for previous 24 hours

 ConditionsComfort  
Time TempWeatherWind HumidityBarometerVisibility
1:00 AM
Aug 28
68 °FPassing clouds.5 mph83%30.02 "HgN/A
12:00 AM70 °FPassing clouds.6 mph78%30.03 "HgN/A
11:00 PM
Aug 27
70 °FPassing clouds.6 mph78%30.03 "HgN/A
10:00 PM72 °FPassing clouds.7 mph69%30.02 "HgN/A
9:00 PM72 °FPassing clouds.8 mph69%30.01 "HgN/A
8:00 PM73 °FPassing clouds.7 mph65%29.98 "HgN/A
7:00 PM77 °FPassing clouds.8 mph61%29.95 "HgN/A
6:00 PM81 °FPartly sunny.7 mph54%29.93 "HgN/A
5:00 PM84 °FPartly sunny.9 mph51%29.91 "HgN/A
4:00 PM84 °FScattered clouds.3 mph48%29.92 "HgN/A
3:00 PM82 °FPartly sunny.3 mph51%29.94 "HgN/A
2:00 PM81 °FBroken clouds.3 mph58%29.97 "HgN/A
1:00 PM81 °FBroken clouds.3 mph54%30.00 "HgN/A
12:00 PM79 °FBroken clouds.No wind58%30.03 "HgN/A
11:00 AM77 °FBroken clouds.3 mph69%30.07 "HgN/A
10:00 AM73 °FScattered showers. Broken clouds.2 mph74%30.09 "Hg6 mi
9:00 AM72 °FBroken clouds.No wind78%30.09 "Hg6 mi
8:00 AM70 °FBroken clouds.5 mph88%30.07 "Hg6 mi
7:00 AM68 °FLow clouds.No wind94%30.05 "Hg5 mi
6:00 AM68 °FPassing clouds.No wind94%30.03 "Hg5 mi
5:00 AM68 °FPassing clouds.No wind94%30.02 "HgN/A
4:00 AM68 °FPassing clouds.No wind94%30.01 "HgN/A
3:00 AM70 °FPassing clouds.No wind88%30.02 "HgN/A
2:00 AM68 °FPassing clouds.No wind94%30.02 "HgN/A
Weather by CustomWeather, © 2014

See weather overviewHow to use our weather pages